| time (UTC) | temp F | wind direction | speed MPH | gust MPH | rain 1hr in | rain 24hr in | rain mn in | humidity % | barometer mb |
| 20260504022532 | 56 | 0.0 | 0.0 | 0.00 | 0.00 | 0.00 | 51 | 1007.6 | |
| 20260504021518 | 56 | 0.0 | 0.0 | 0.00 | 0.00 | 0.00 | 49 | 1007.4 | |
| 20260504020520 | 57 | 0.0 | 0.0 | 0.00 | 0.00 | 0.00 | 51 | 1007.3 | |
| 20260504015523 | 57 | 0.0 | 0.0 | 0.00 | 0.00 | 0.00 | 49 | 1007.3 | |
| 20260504014526 | 59 | 90 | 0.0 | 1.0 | 0.00 | 0.00 | 0.00 | 47 | 1007.3 |
| 20260504013529 | 60 | 0.0 | 0.0 | 0.00 | 0.00 | 0.00 | 43 | 1007.3 | |
| 20260504012532 | 62 | 0.0 | 0.0 | 0.00 | 0.00 | 0.00 | 41 | 1007.2 | |
| 20260504011517 | 64 | 11 | 0.0 | 2.0 | 0.00 | 0.00 | 0.00 | 38 | 1007.3 |
| 20260504010519 | 66 | 0.0 | 0.0 | 0.00 | 0.00 | 0.00 | 37 | 1007.2 | |
| 20260504005522 | 68 | 22 | 1.0 | 3.0 | 0.00 | 0.00 | 0.00 | 34 | 1007.2 |
| 20260504004525 | 70 | 310 | 2.0 | 5.0 | 0.00 | 0.00 | 0.00 | 32 | 1007.2 |
| 20260504003528 | 72 | 319 | 3.0 | 6.0 | 0.00 | 0.00 | 0.00 | 31 | 1007.2 |
| 20260504002524 | 74 | 321 | 2.0 | 4.0 | 0.00 | 0.00 | 0.00 | 29 | 1007.2 |
| 20260504001521 | 74 | 300 | 2.0 | 4.0 | 0.00 | 0.00 | 0.00 | 28 | 1007.2 |
| 20260504000518 | 73 | 272 | 3.0 | 5.0 | 0.00 | 0.00 | 0.00 | 28 | 1007.2 |
| 20260503235521 | 75 | 297 | 3.0 | 5.0 | 0.00 | 0.00 | 0.00 | 26 | 1007.3 |
| 20260503234524 | 75 | 262 | 3.0 | 7.0 | 0.00 | 0.00 | 0.00 | 26 | 1007.3 |
| 20260503233527 | 74 | 274 | 4.0 | 8.0 | 0.00 | 0.00 | 0.00 | 27 | 1007.3 |
| 20260503232530 | 76 | 272 | 4.0 | 7.0 | 0.00 | 0.00 | 0.00 | 28 | 1007.3 |
| 20260503231515 | 76 | 299 | 3.0 | 7.0 | 0.00 | 0.00 | 0.00 | 28 | 1007.2 |
| 20260503230518 | 76 | 272 | 4.0 | 7.0 | 0.00 | 0.00 | 0.00 | 27 | 1007.2 |
| 20260503225521 | 76 | 7.0 | 7.0 | 0.00 | 0.00 | 0.00 | 27 | 1007.2 | |
| 20260503224524 | 77 | 270 | 5.0 | 10.0 | 0.00 | 0.00 | 0.00 | 27 | 1007.1 |
| 20260503223527 | 77 | 304 | 4.0 | 6.0 | 0.00 | 0.00 | 0.00 | 27 | 1007.0 |
| 20260503222530 | 77 | 265 | 5.0 | 10.0 | 0.00 | 0.00 | 0.00 | 26 | 1007.0 |
| 20260503221532 | 78 | 269 | 4.0 | 6.0 | 0.00 | 0.00 | 0.00 | 27 | 1007.1 |
| 20260503220517 | 77 | 283 | 5.0 | 8.0 | 0.00 | 0.00 | 0.00 | 28 | 1007.0 |
| 20260503215520 | 78 | 281 | 5.0 | 11.0 | 0.00 | 0.00 | 0.00 | 30 | 1007.1 |
| 20260503214523 | 76 | 8.0 | 8.0 | 0.00 | 0.00 | 0.00 | 30 | 1007.1 | |
| 20260503213526 | 77 | 334 | 5.0 | 8.0 | 0.00 | 0.00 | 0.00 | 31 | 1007.1 |
| 20260503212529 | 76 | 285 | 7.0 | 15.0 | 0.00 | 0.00 | 0.00 | 32 | 1007.2 |
| 20260503211526 | 76 | 288 | 4.0 | 8.0 | 0.00 | 0.00 | 0.00 | 31 | 1007.3 |
| 20260503210517 | 76 | 328 | 7.0 | 11.0 | 0.00 | 0.00 | 0.00 | 29 | 1007.4 |
| 20260503205520 | 77 | 274 | 7.0 | 12.0 | 0.00 | 0.00 | 0.00 | 28 | 1007.4 |
| 20260503204517 | 77 | 274 | 3.0 | 5.0 | 0.00 | 0.00 | 0.00 | 30 | 1007.4 |
| 20260503203526 | 77 | 283 | 4.0 | 8.0 | 0.00 | 0.00 | 0.00 | 31 | 1007.5 |
| 20260503202529 | 76 | 260 | 4.0 | 6.0 | 0.00 | 0.00 | 0.00 | 32 | 1007.6 |
| 20260503201532 | 76 | 259 | 4.0 | 7.0 | 0.00 | 0.00 | 0.00 | 31 | 1007.6 |
| 20260503200517 | 76 | 273 | 5.0 | 7.0 | 0.00 | 0.00 | 0.00 | 30 | 1007.8 |
| 20260503195520 | 76 | 312 | 6.0 | 9.0 | 0.00 | 0.00 | 0.00 | 29 | 1007.8 |
| 20260503194523 | 76 | 259 | 5.0 | 8.0 | 0.00 | 0.00 | 0.00 | 35 | 1007.8 |
| 20260503193526 | 76 | 278 | 5.0 | 9.0 | 0.00 | 0.00 | 0.00 | 33 | 1007.8 |
| 20260503192528 | 75 | 274 | 4.0 | 9.0 | 0.00 | 1.11 | 0.00 | 33 | 1007.8 |
| 20260503191531 | 75 | 284 | 5.0 | 9.0 | 0.00 | 1.11 | 0.00 | 36 | 1007.8 |
| 20260503190516 | 75 | 266 | 6.0 | 9.0 | 0.00 | 1.11 | 0.00 | 37 | 1007.9 |
| 20260503185519 | 74 | 286 | 6.0 | 10.0 | 0.00 | 1.11 | 0.00 | 38 | 1007.9 |
| 20260503184522 | 74 | 290 | 4.0 | 7.0 | 0.00 | 1.11 | 0.00 | 36 | 1008.0 |
| 20260503183524 | 74 | 168 | 4.0 | 7.0 | 0.00 | 1.11 | 0.00 | 37 | 1008.1 |
| 20260503182527 | 73 | 305 | 6.0 | 9.0 | 0.00 | 1.11 | 0.00 | 38 | 1008.1 |
| 20260503181530 | 73 | 300 | 4.0 | 7.0 | 0.00 | 1.11 | 0.00 | 40 | 1008.1 |
| 20260503180515 | 73 | 295 | 6.0 | 12.0 | 0.00 | 1.11 | 0.00 | 40 | 1008.1 |
| 20260503175518 | 73 | 282 | 6.0 | 9.0 | 0.00 | 1.11 | 0.00 | 39 | 1008.1 |
| 20260503174521 | 72 | 349 | 6.0 | 10.0 | 0.00 | 1.11 | 0.00 | 40 | 1008.1 |
| 20260503173517 | 72 | 262 | 5.0 | 11.0 | 0.00 | 1.11 | 0.00 | 41 | 1008.2 |
| 20260503172527 | 72 | 293 | 5.0 | 9.0 | 0.00 | 1.11 | 0.00 | 41 | 1008.3 |
| 20260503171529 | 72 | 280 | 4.0 | 7.0 | 0.00 | 1.11 | 0.00 | 42 | 1008.1 |
| 20260503170532 | 72 | 271 | 5.0 | 7.0 | 0.00 | 1.11 | 0.00 | 42 | 1008.1 |
| 20260503150530 | 65 | 192 | 3.0 | 7.0 | 0.00 | 1.11 | 0.00 | 45 | 1008.6 |
| 20260503130529 | 55 | 191 | 5.0 | 9.0 | 0.00 | 1.11 | 0.00 | 52 | 1009.2 |
| 20260503110517 | 53 | 197 | 3.0 | 9.0 | 0.00 | 1.11 | 0.00 | 59 | 1009.1 |
| 20260503081525 | 55 | 262 | 2.0 | 4.0 | 0.00 | 1.11 | 0.00 | 54 | 1011.9 |
| 20260503080522 | 55 | 297 | 2.0 | 5.0 | 0.00 | 1.11 | 0.00 | 51 | 1011.9 |
| 20260503072521 | 53 | 202 | 2.0 | 6.0 | 0.00 | 1.11 | 0.00 | 50 | 1011.7 |
| 20260503071524 | 53 | 206 | 2.0 | 5.0 | 0.00 | 1.11 | 0.00 | 50 | 1012.1 |
| 20260503070527 | 53 | 188 | 1.0 | 2.0 | 0.00 | 1.11 | 0.00 | 49 | 1012.4 |
| 20260503054526 | 55 | 231 | 3.0 | 4.0 | 0.00 | 1.11 | 0.00 | 46 | 1012.9 |
| 20260503053529 | 55 | 211 | 3.0 | 6.0 | 0.00 | 1.11 | 0.00 | 46 | 1013.0 |
| 20260503052533 | 55 | 193 | 2.0 | 5.0 | 0.00 | 1.11 | 0.00 | 47 | 1013.2 |
| 20260503051525 | 55 | 208 | 1.0 | 3.0 | 0.00 | 1.11 | 0.00 | 47 | 1013.1 |
| 20260503050516 | 55 | 216 | 3.0 | 5.0 | 0.00 | 1.11 | 0.00 | 47 | 1013.2 |
| 20260503045519 | 55 | 145 | 0.0 | 2.0 | 0.00 | 1.11 | 1.11 | 48 | 1013.4 |
| 20260503044516 | 55 | 199 | 2.0 | 3.0 | 0.00 | 1.11 | 1.11 | 48 | 1013.4 |
| 20260503043525 | 55 | 154 | 1.0 | 3.0 | 0.00 | 1.11 | 1.11 | 48 | 1013.4 |
| 20260503042527 | 55 | 166 | 1.0 | 4.0 | 0.00 | 1.11 | 1.11 | 49 | 1013.5 |
| 20260503041530 | 54 | 168 | 2.0 | 3.0 | 0.00 | 1.11 | 1.11 | 50 | 1013.6 |
| 20260503040533 | 54 | 197 | 1.0 | 3.0 | 0.00 | 1.11 | 1.11 | 51 | 1013.8 |
| 20260503035518 | 54 | 0.0 | 0.0 | 0.00 | 1.11 | 1.11 | 51 | 1013.9 | |
| 20260503034520 | 54 | 135 | 0.0 | 1.0 | 0.00 | 1.11 | 1.11 | 50 | 1014.1 |
| 20260503033524 | 54 | 0.0 | 1.0 | 0.00 | 1.11 | 1.11 | 50 | 1014.2 | |
| 20260503032527 | 54 | 123 | 1.0 | 2.0 | 0.00 | 1.11 | 1.11 | 50 | 1014.3 |
| 20260503031530 | 54 | 0.0 | 0.0 | 0.00 | 1.11 | 1.11 | 49 | 1014.3 | |
| 20260503030532 | 55 | 0.0 | 2.0 | 0.00 | 1.11 | 1.11 | 49 | 1014.5 | |
| 20260503025517 | 55 | 0.0 | 0.0 | 0.00 | 1.11 | 1.11 | 49 | 1014.5 | |
| 20260503024520 | 55 | 0.0 | 0.0 | 0.00 | 1.11 | 1.11 | 49 | 1014.6 | |
| 20260503023523 | 55 | 0.0 | 0.0 | 0.00 | 1.11 | 1.11 | 47 | 1014.7 |